Weather Roundup
Issued by NWS Chicago, IL

Home | Current Version | Previous Version | Text Only | Print | Product List | Glossary Off
Versions: 1 2 3 4 5 6 7 8 9 10 11 12 13 14 15 16 17 18 19 20 21 22 23 24 25 26 27 28 29 30 31 32 33 34 35 36 37 38 39 40 41 42 43 44 45 46 47 48 49 50

000
NZUS59 KLOT 161708
HRRLOT

CHICAGO AREA WEATHER ROUNDUP
NATIONAL WEATHER SERVICE CHICAGO/ROMEOVILLE IL
1100 AM CST TUE JAN 16 2018

NOTE: "FAIR" INDICATES FEW OR NO CLOUDS BELOW 12,000 FEET WITH NO
SIGNIFICANT WEATHER AND/OR OBSTRUCTIONS TO VISIBILITY.

* THESE STATIONS ARE NOT UNDER NWS QUALITY CONTROL. THEY ALSO MAY NOT
  REPORT WEATHER SUCH AS PRECIPITATION OR FOG.

ILZ005-006-012>014-019>023-161800-
NORTHEAST ILLINOIS

CITY           SKY/WX    TMP DP  RH WIND       PRES   REMARKS
OHARE          FLURRIES  21  14  74 NW15      30.45R WCI   8
MIDWAY         FLURRIES  21  15  78 NW10      30.46R WCI  10
AURORA         PTSUNNY   15  11  83 NW13      30.49R WCI   1
LANSING*       LGT SNOW  17  13  82 W14       30.46S WCI   3
JOLIET*        LGT SNOW  14   9  79 W7        30.50S WCI   4
WAUKEGAN       LGT SNOW  25  13  60 NW10G17   30.44S WCI  15
DUPAGE AIRPORT   N/A     18  13  80 NW12      30.46S WCI   5
WHEELING       LGT SNOW  21  16  81 NW14      30.47S WCI   8
KANKAKEE*      CLOUDY     8   2  78 W16       30.51F WCI -10
MORRIS*          N/A     11   6  79 W16       30.50S WCI  -5
LEWIS AIRPORT*   N/A     15  10  82 W8        30.48S WCI   4
NORTHERLY ISL    N/A     21  16  81 W15         N/A  WCI   8
$$

WIZ051-052-058>065-066-070>072-161800-
SOUTHEAST WISCONSIN

CITY           SKY/WX    TMP DP  RH WIND       PRES   REMARKS
MILWAUKEE      PTSUNNY   21  11  65 N15       30.46R WCI   8
KENOSHA*       PTSUNNY   21  10  62 NW15      30.45R WCI   8
RACINE*        PTSUNNY   20  10  65 NW10      30.46S WCI   9
BURLINGTON       N/A     20  10  65 NW10      30.47R WCI   8
WAUKESHA       MOSUNNY   18   7  62 NW12      30.47R WCI   5
WEST BEND      PTSUNNY   19   9  63 N7        30.46S WCI  10
$$

INZ001>003-010>013-019-020-161800-
NORTHWEST INDIANA

CITY           SKY/WX    TMP DP  RH WIND       PRES   REMARKS
GARY*          NOT AVBL
MICHIGAN CITY* NOT AVBL
RENSSELAER*    NOT AVBL
VALPARAISO     LGT SNOW   9   4  80 SW10      30.44S WCI  -5
$$

LMZ740>746-161800-
SOUTHERN LAKE MICHIGAN

STATION/POSITION TIME  SKY/WX   TEMP WIND        PRES    VSBY
                                AIR  DIR/SP/G
                 (UTC)          (F)  (DEG/KT/KT) (MB)    (MI)
HARRISON CRIB    1640            21  310/ 22/ 23   N/A
BURNHAM HARBOR   1700            21  270/ 11/ 16   N/A
CALUMET HARBOR   1642            20  260/  4/  9 1030.1R
BURNS HARBOR     1640            10  190/ 11/ 13 1031.2R
MICHIGAN CITY    1640                170/ 10/ 12   N/A
$$

ABBREVIATIONS USED IN REMARKS
   TC - TEMPERATURE IN CELSIUS
  WCI - WIND CHILL INDEX
   HX - HEAT INDEX
  VSB - VISIBILITY
$$




USA.gov is the U.S. government's official web portal to all federal, state and local government web resources and services.